GW1774 Weather Reports


Display with metric or nautical units.
time (UTC)temp
F
wind
direction
speed
MPH
gust
MPH
rain 1hr
in
rain 24hr
in
rain mn
in
humidity
%
barometer
mb
20260505101523 51 0.0 0.0 0.00 0.00 0.00 89 1016.6
20260505100519 51 0.0 0.0 0.00 0.00 0.00 88 1016.5
20260505095614 52 0.0 0.0 0.00 0.00 0.00 87 1016.5
20260505094549 52 0.0 0.0 0.00 0.00 0.00 86 1016.4
20260505093525 53 0.0 0.0 0.00 0.00 0.00 85 1016.2
20260505092520 53 0.0 0.0 0.00 0.00 0.00 84 1016.2
20260505091535 53 0.0 0.0 0.00 0.00 0.00 83 1016.2
20260505090531 54 69 0.0 0.0 0.00 0.00 0.00 82 1016.1
20260505085526 54 69 0.0 0.0 0.00 0.00 0.00 80 1016.1
20260505084521 55 69 0.0 0.0 0.00 0.00 0.00 79 1016.1
20260505083517 55 0.0 0.0 0.00 0.00 0.00 79 1016.0
20260505082533 56 69 0.0 0.0 0.00 0.00 0.00 78 1016.1
20260505081609 56 69 0.0 0.0 0.00 0.00 0.00 77 1015.9
20260505080524 56 0.0 0.0 0.00 0.00 0.00 76 1015.9
20260505075521 57 69 0.0 0.0 0.00 0.00 0.00 75 1016.0
20260505074516 57 0.0 0.0 0.00 0.00 0.00 74 1016.0
20260505073532 58 69 0.0 0.0 0.00 0.00 0.00 73 1015.8
20260505072527 58 0.0 0.0 0.00 0.00 0.00 73 1015.7
20260505071523 58 0.0 0.0 0.00 0.00 0.00 72 1015.7
20260505070519 59 0.0 0.0 0.00 0.00 0.00 71 1015.7
20260505065535 59 0.0 0.0 0.00 0.00 0.00 70 1015.6
20260505064530 60 0.0 0.0 0.00 0.00 0.00 68 1015.6
20260505063546 60 70 0.0 1.0 0.00 0.00 0.00 68 1015.7
20260505062521 60 0.0 0.0 0.00 0.00 0.00 68 1015.6
20260505061538 60 348 0.0 1.0 0.00 0.00 0.00 67 1015.6
20260505060533 61 344 0.0 1.0 0.00 0.00 0.00 67 1015.6
20260505055529 61 320 0.0 1.0 0.00 0.00 0.00 66 1015.7
20260505054525 61 8 0.0 1.0 0.00 0.00 0.00 66 1015.7
20260505053521 61 12 0.0 0.0 0.00 0.00 0.00 65 1015.7
20260505052516 62 35 0.0 1.0 0.00 0.00 0.00 64 1015.7
20260505051552 62 111 0.0 1.0 0.00 0.00 0.00 64 1015.8
20260505050527 62 206 0.0 1.0 0.00 0.00 0.00 64 1015.8
20260505041526 63 129 0.0 2.0 0.00 0.00 0.00 61 1015.8
20260505040522 63 128 0.0 1.0 0.00 0.00 0.00 60 1015.8
20260505035517 63 270 0.0 1.0 0.00 0.00 0.00 59 1015.8
20260505034533 63 0.0 0.0 0.00 0.00 0.00 58 1015.8
20260505033549 64 308 0.0 1.0 0.00 0.00 0.00 57 1015.9
20260505032525 63 311 0.0 0.0 0.00 0.00 0.00 57 1015.9
20260505031520 62 311 0.0 1.0 0.00 0.00 0.00 57 1015.8
20260505030516 62 0.0 0.0 0.00 0.00 0.00 57 1015.9
20260505025531 63 333 0.0 2.0 0.00 0.00 0.00 57 1015.9
20260505024527 63 0.0 0.0 0.00 0.00 0.00 59 1015.8
20260505023523 64 116 0.0 0.0 0.00 0.00 0.00 52 1015.7
20260505022518 64 116 0.0 0.0 0.00 0.00 0.00 54 1015.6
20260505021533 65 116 0.0 0.0 0.00 0.00 0.00 53 1015.5
20260505020529 65 0.0 0.0 0.00 0.00 0.00 50 1015.4
20260505015524 65 0.0 0.0 0.00 0.00 0.00 49 1015.3
20260505014519 64 0.0 0.0 0.00 0.00 0.00 52 1015.3
20260505013534 64 0.0 0.0 0.00 0.00 0.00 56 1015.0
20260505012550 63 0.0 0.0 0.00 0.00 0.00 53 1014.9
20260505011525 63 0.0 0.0 0.00 0.00 0.00 60 1014.9
20260505010521 63 0.0 0.0 0.00 0.00 0.00 57 1014.7
20260505005516 64 0.0 0.0 0.00 0.00 0.00 54 1014.7
20260505004531 64 0.0 0.0 0.00 0.00 0.00 54 1014.4
20260505003527 65 0.0 0.0 0.00 0.00 0.00 54 1014.3
20260505002543 66 0.0 0.0 0.00 0.00 0.00 50 1014.2
20260505001518 67 0.0 0.0 0.00 0.00 0.00 51 1014.1
20260505000533 68 0.0 0.0 0.00 0.00 0.00 46 1014.0
20260504235528 70 0.0 0.0 0.00 0.00 0.00 42 1014.0
20260504234524 71 0.0 0.0 0.00 0.00 0.00 40 1014.0
20260504233519 72 0.0 0.0 0.00 0.00 0.00 37 1013.8
20260504232535 72 0.0 0.0 0.00 0.00 0.00 37 1013.7
20260504231531 73 0.0 0.0 0.00 0.00 0.00 38 1013.7
20260504230527 74 0.0 0.0 0.00 0.00 0.00 38 1013.7
20260504225522 75 347 0.0 1.0 0.00 0.00 0.00 34 1013.7
20260504224518 76 345 0.0 1.0 0.00 0.00 0.00 31 1013.8
20260504223534 77 324 0.0 1.0 0.00 0.00 0.00 31 1013.8
20260504222529 77 84 1.0 2.0 0.00 0.00 0.00 30 1013.8
20260504221525 77 327 1.0 2.0 0.00 0.00 0.00 30 1013.9
20260504220521 77 230 1.0 2.0 0.00 0.00 0.00 32 1013.9
20260504215516 78 126 1.0 3.0 0.00 0.00 0.00 30 1013.9
20260504214532 78 276 1.0 3.0 0.00 0.00 0.00 29 1013.8
20260504213528 79 118 1.0 3.0 0.00 0.00 0.00 29 1013.8
20260504212524 80 120 1.0 3.0 0.00 0.00 0.00 29 1013.8
20260504211519 82 58 1.0 2.0 0.00 0.00 0.00 28 1013.9
20260504210535 80 145 0.0 2.0 0.00 0.00 0.00 28 1013.8
20260504205531 80 123 2.0 6.0 0.00 0.00 0.00 29 1013.9
20260504204526 81 241 1.0 2.0 0.00 0.00 0.00 29 1014.0
20260504203522 81 91 1.0 2.0 0.00 0.00 0.00 28 1014.0
20260504202518 79 125 2.0 3.0 0.00 0.00 0.00 29 1014.1
20260504201534 80 119 1.0 4.0 0.00 0.00 0.00 28 1014.2
20260504200530 81 332 0.0 1.0 0.00 0.00 0.00 26 1014.3
20260504195525 81 124 2.0 3.0 0.00 0.00 0.00 27 1014.5
20260504194521 80 110 2.0 3.0 0.00 0.00 0.00 27 1014.6
20260504193517 81 132 2.0 3.0 0.00 0.00 0.00 27 1014.6
20260504192532 80 140 1.0 3.0 0.00 0.00 0.00 29 1014.8
20260504191528 81 118 2.0 4.0 0.00 0.00 0.00 26 1014.9
20260504190524 81 207 2.0 3.0 0.00 0.00 0.00 28 1015.0
20260504185520 79 109 1.0 4.0 0.00 0.00 0.00 28 1015.2
20260504184535 79 109 1.0 3.0 0.00 0.00 0.00 30 1015.2
20260504183531 80 290 1.0 2.0 0.00 0.00 0.00 29 1015.2
20260504182527 79 110 1.0 3.0 0.00 0.00 0.00 29 1015.3
20260504181522 78 111 1.0 3.0 0.00 0.00 0.00 31 1015.6
20260504180538 78 230 1.0 1.0 0.00 0.00 0.00 29 1015.6
20260504175534 78 26 1.0 4.0 0.00 0.00 0.00 29 1015.7
20260504174550 79 35 1.0 2.0 0.00 0.00 0.00 29 1015.6
20260504173525 77 177 1.0 2.0 0.00 0.00 0.00 30 1015.6
20260504172521 78 46 1.0 2.0 0.00 0.00 0.00 29 1015.8
20260504171517 76 65 1.0 3.0 0.00 0.00 0.00 27 1016.0
20260504170532 77 333 2.0 3.0 0.00 0.00 0.00 28 1016.3
20260504150517 67 120 1.0 2.0 0.00 0.00 0.00 50 1017.5
20260504140530 61 75 1.0 2.0 0.00 0.00 0.00 65 1017.6
20260504130524 54 132 0.0 1.0 0.00 0.00 0.00 77 1017.7
20260504110533 45 0.0 0.0 0.00 0.00 0.00 93 1017.9